Wind_Speed
48 49 50 51 52 53 53 55 56 55 54 54 54 54 56 56 56 57 58 58 59 59 60 59 59 59 60 61 61 61 60 60 59 58 58 57 57 57
50 51 52 53 53 54 55 56 57 58 57 55 55 55 55 56 56 57 57 58 58 58 58 59 59 60 60 60 61 61 60 59 59 58 56 56 55 55
52 53 54 55 55 57 57 57 58 58 58 56 55 55 56 56 56 56 56 57 57 56 57 58 59 59 59 59 59 59 59 58 57 57 56 56 55 56
54 56 56 57 58 58 58 58 58 58 58 57 55 55 55 55 55 55 55 55 55 56 56 57 57 58 58 58 58 57 56 55 55 55 55 55 55 56
56 57 58 58 58 59 58 58 57 57 57 57 55 54 54 53 54 53 54 54 55 55 56 56 56 56 56 57 56 55 55 54 53 53 54 54 55 56
57 58 58 58 58 57 57 56 55 55 54 55 54 52 52 52 53 53 54 54 55 55 54 54 54 53 53 53 53 53 53 53 54 53 53 54 55 55
57 57 57 56 56 55 54 53 53 52 52 52 52 52 52 52 53 54 54 54 53 54 53 52 52 51 51 51 51 51 51 51 52 51 51 52 53 53
56 55 54 53 52 52 51 51 51 51 51 51 51 51 51 52 52 52 52 52 51 51 51 50 50 49 48 49 49 49 48 49 49 49 49 50 49 50
54 53 52 51 50 50 50 50 50 51 51 51 51 51 51 50 50 51 51 51 50 49 49 47 46 46 46 46 46 46 46 45 44 45 45 46 47 48
51 50 49 48 48 49 49 49 49 49 49 50 50 49 49 49 50 50 50 49 47 47 47 45 44 43 43 43 42 42 42 41 40 41 42 43 43 44
49 48 48 47 46 47 47 47 47 47 48 48 49 49 49 49 49 49 48 47 45 44 44 43 42 42 40 39 39 39 38 37 37 37 38 39 39 39
47 46 45 44 44 45 45 46 45 46 47 47 48 48 48 48 47 47 47 45 44 41 41 41 40 40 38 36 36 35 36 36 36 36 35 35 35 34
44 43 43 43 43 44 44 45 45 46 46 46 46 46 46 46 45 45 44 42 41 39 38 38 38 37 36 34 33 33 34 34 33 32 32 32 32 31
41 41 41 41 42 42 43 43 44 45 45 44 44 44 44 43 43 42 41 39 38 37 36 35 35 34 32 31 30 31 32 32 30 29 29 29 29 29
40 41 41 41 41 42 43 43 44 44 44 44 43 42 41 41 40 39 38 37 36 35 34 33 32 31 29 28 28 28 27 27 28 27 27 26 26 26
40 40 40 41 41 42 43 43 44 44 43 42 41 40 38 38 37 36 35 33 32 31 31 30 30 29 27 26 26 24 23 23 23 23 22 22 22 23
40 40 41 41 42 42 43 43 43 42 41 40 39 38 37 36 35 34 32 31 30 29 28 27 27 26 25 23 21 20 20 19 19 19 19 18 19 19
39 40 41 41 41 41 41 41 39 39 38 38 37 36 35 34 33 31 30 29 28 26 25 24 23 22 20 18 18 17 17 16 16 16 16 16 16 16
38 38 39 39 40 39 39 38 37 36 36 35 34 33 32 31 30 28 27 26 25 24 22 21 19 17 16 16 15 15 14 14 15 15 15 15 14 13
38 38 38 38 37 37 36 35 35 34 33 32 31 30 30 29 27 26 24 23 22 20 18 16 15 14 13 13 13 12 13 13 14 14 13 13 12 12
37 37 36 36 35 34 34 33 32 31 29 28 28 27 26 25 24 22 20 19 17 15 14 12 12 12 12 12 11 11 11 12 12 12 11 11 11 11
35 34 33 33 32 31 30 29 28 27 26 25 24 23 22 21 19 17 16 14 12 11 11 11 12 12 11 11 10 10 10 10 11 10 10 9 9 9
33 32 31 29 28 27 26 25 25 24 23 22 21 20 19 17 16 14 13 12 10 10 11 11 11 11 10 10 10 9 9 9 9 9 8 7 7 8
Wind_Direction
282 283 284 284 285 286 286 286 286 285 284 284 284 284 284 284 283 283 282 282 282 280 279 279 278 277 276 275 274 274 273 272 270 269 268 266 265 265
283 283 284 285 285 285 286 286 286 286 285 285 284 284 284 284 284 284 284 284 283 282 281 279 278 277 277 276 275 274 273 272 270 269 267 265 265 265
284 285 285 285 285 286 286 286 286 286 286 286 285 285 285 284 284 284 284 284 284 283 282 280 279 278 277 276 276 275 274 273 271 269 268 266 266 266
285 285 285 285 285 286 286 286 286 286 286 286 285 285 285 284 284 284 284 285 285 284 283 282 281 279 277 277 276 275 274 272 271 269 268 267 267 265
286 286 285 285 285 286 286 286 286 285 286 286 286 285 285 285 284 285 285 285 285 285 283 282 281 279 278 277 276 275 273 271 270 269 268 268 268 267
286 286 286 285 285 285 285 285 285 285 286 286 286 286 286 286 285 285 285 286 286 285 284 283 281 280 279 278 276 275 273 272 271 270 269 269 268 268
286 287 286 285 285 285 286 286 285 286 287 287 287 287 287 287 287 287 286 286 286 285 284 283 282 280 280 278 276 275 274 274 272 270 270 269 269 269
286 286 286 285 285 285 286 286 286 287 287 288 289 289 289 288 288 289 288 287 286 285 284 282 281 280 279 278 277 276 275 274 273 271 270 271 270 269
286 286 285 285 285 286 286 286 287 288 288 288 289 290 289 290 290 290 289 288 287 285 284 283 281 280 279 279 277 276 276 274 273 271 269 270 269 268
286 285 285 285 285 285 286 286 286 287 288 288 290 290 290 290 290 290 290 288 287 286 285 284 281 280 280 279 278 278 276 274 273 272 271 271 270 269
285 285 285 285 285 286 286 287 287 288 288 289 290 290 291 290 291 290 290 288 286 284 284 283 281 280 280 279 278 277 275 272 271 271 273 272 271 269
284 284 285 285 286 287 288 289 289 289 290 290 290 290 291 290 291 291 290 289 287 285 283 282 281 281 280 279 277 276 274 272 272 272 273 270 270 269
282 283 284 286 287 288 288 290 290 290 291 291 291 291 290 290 291 291 290 289 287 286 284 283 282 282 282 279 275 274 273 273 272 270 270 268 267 267
282 283 284 285 287 288 290 291 291 292 292 292 292 292 291 290 291 290 289 287 287 287 285 284 284 284 282 281 277 274 273 271 269 269 269 268 267 265
282 283 284 286 287 289 290 292 292 292 292 292 292 292 291 291 290 289 288 287 286 285 285 286 286 284 284 283 279 275 271 268 269 270 269 267 266 264
283 284 285 286 287 289 290 291 291 292 293 293 293 292 291 290 290 289 288 286 285 283 284 285 285 285 283 283 280 274 270 271 270 269 267 265 264 262
285 284 285 286 287 288 289 291 291 291 292 293 292 292 292 291 289 288 286 284 283 282 281 281 281 282 282 281 277 272 270 270 271 270 266 261 262 260
286 286 286 287 288 289 290 291 291 292 291 291 291 292 291 290 289 287 284 282 281 280 279 278 278 277 275 274 273 269 266 267 266 267 266 263 261 255
287 287 287 287 288 289 289 290 290 291 291 290 291 291 291 290 287 285 283 281 280 277 276 275 273 269 267 268 266 265 264 264 265 265 265 264 256 245
288 288 288 288 288 288 289 290 290 290 290 289 290 291 290 289 286 283 281 278 275 271 270 267 263 262 264 264 261 260 264 266 265 263 261 261 249 241
290 290 289 288 288 288 289 288 288 289 290 289 290 290 290 287 283 279 276 274 269 261 256 254 256 259 264 263 259 259 263 268 268 261 258 253 242 238
290 291 290 290 288 288 287 286 286 287 288 289 290 289 288 285 281 274 271 265 256 249 246 250 257 260 262 262 261 264 263 262 261 255 252 242 232 224
290 291 291 290 289 288 287 286 286 286 287 287 287 287 287 284 276 268 262 251 248 249 249 251 254 255 257 261 262 259 255 252 249 244 237 223 208 200
Height
5691 5688 5686 5683 5680 5677 5674 5670 5667 5665 5666 5665 5661 5657 5652 5648 5645 5641 5639 5636 5633 5631 5630 5629 5627 5626 5625 5624 5623 5622 5621 5621 5621 5621 5622 5623 5624 5626
5678 5676 5673 5670 5667 5663 5660 5656 5652 5648 5647 5649 5646 5642 5637 5633 5629 5626 5623 5620 5617 5615 5613 5611 5610 5609 5607 5606 5605 5604 5603 5603 5603 5604 5605 5605 5607 5608
5665 5662 5659 5656 5653 5649 5645 5642 5638 5633 5630 5631 5629 5626 5622 5618 5615 5611 5607 5604 5602 5599 5596 5594 5593 5591 5590 5589 5587 5586 5586 5586 5586 5586 5587 5588 5589 5591
5652 5648 5645 5641 5638 5634 5630 5627 5623 5619 5615 5614 5614 5611 5607 5603 5600 5596 5592 5589 5586 5583 5580 5578 5576 5574 5572 5571 5570 5569 5569 5568 5568 5569 5570 5571 5572 5574
5637 5633 5630 5626 5623 5619 5615 5612 5608 5605 5601 5598 5598 5596 5592 5588 5584 5581 5578 5574 5571 5568 5564 5562 5559 5557 5555 5554 5552 5552 5552 5552 5552 5553 5553 5554 5555 5556
5623 5618 5614 5610 5607 5604 5601 5597 5593 5591 5587 5584 5582 5580 5577 5573 5569 5567 5564 5560 5556 5552 5548 5546 5543 5541 5539 5537 5536 5536 5535 5535 5535 5536 5537 5537 5538 5539
5608 5604 5599 5596 5592 5589 5585 5582 5579 5577 5573 5570 5568 5565 5562 5559 5555 5551 5548 5546 5543 5538 5534 5531 5528 5526 5524 5522 5520 5519 5519 5519 5519 5519 5520 5521 5522 5522
5594 5590 5586 5582 5579 5575 5572 5569 5566 5563 5560 5557 5554 5551 5548 5544 5539 5536 5532 5530 5529 5526 5520 5518 5514 5512 5510 5507 5505 5504 5503 5503 5503 5504 5504 5505 5505 5506
5579 5575 5572 5569 5565 5562 5559 5556 5553 5549 5546 5543 5540 5537 5534 5530 5526 5523 5518 5514 5512 5509 5505 5505 5501 5499 5496 5493 5491 5490 5489 5489 5489 5489 5489 5490 5490 5491
5565 5562 5559 5556 5553 5550 5547 5545 5541 5538 5534 5530 5526 5523 5519 5516 5511 5508 5504 5501 5499 5495 5491 5489 5488 5486 5484 5481 5478 5477 5476 5475 5475 5475 5476 5476 5476 5477
5552 5549 5546 5544 5541 5538 5535 5532 5530 5526 5521 5517 5513 5510 5506 5502 5498 5494 5491 5487 5486 5484 5479 5476 5475 5473 5472 5470 5467 5465 5463 5464 5464 5464 5463 5463 5463 5464
5540 5537 5534 5532 5529 5526 5523 5520 5517 5514 5510 5506 5502 5498 5494 5490 5485 5481 5477 5474 5472 5471 5468 5464 5463 5460 5460 5460 5457 5454 5453 5453 5453 5453 5452 5452 5452 5453
5528 5526 5524 5521 5518 5514 5511 5508 5505 5501 5498 5494 5490 5487 5482 5478 5474 5469 5465 5462 5460 5458 5456 5453 5451 5449 5447 5447 5447 5445 5444 5443 5443 5443 5442 5442 5443 5443
5517 5515 5512 5510 5507 5504 5500 5497 5493 5489 5486 5482 5478 5475 5471 5467 5463 5459 5455 5452 5449 5447 5444 5442 5440 5439 5437 5436 5436 5436 5435 5434 5434 5434 5434 5434 5435 5435
5506 5504 5501 5499 5496 5493 5489 5486 5482 5478 5474 5470 5467 5463 5459 5455 5452 5449 5445 5442 5439 5437 5435 5433 5431 5429 5428 5427 5427 5426 5426 5426 5426 5426 5426 5426 5427 5427
5495 5493 5490 5488 5485 5482 5478 5475 5471 5467 5463 5459 5455 5452 5448 5445 5441 5438 5436 5433 5431 5429 5427 5424 5422 5421 5420 5419 5418 5418 5418 5418 5419 5419 5419 5420 5420 5421
5484 5482 5480 5477 5474 5471 5467 5463 5459 5455 5452 5448 5445 5442 5438 5435 5432 5429 5426 5424 5423 5421 5420 5417 5415 5414 5413 5412 5412 5411 5411 5412 5412 5412 5413 5414 5415 5415
5473 5471 5469 5466 5463 5460 5456 5452 5449 5445 5441 5438 5435 5432 5429 5426 5423 5421 5418 5416 5415 5413 5412 5411 5409 5408 5408 5407 5406 5406 5406 5407 5407 5408 5408 5409 5410 5411
5463 5460 5457 5455 5452 5449 5445 5442 5439 5435 5432 5428 5425 5422 5420 5417 5415 5412 5410 5409 5407 5406 5405 5404 5403 5403 5403 5403 5403 5402 5402 5402 5403 5404 5404 5405 5407 5408
5452 5449 5447 5444 5441 5438 5435 5432 5429 5426 5422 5419 5416 5414 5411 5409 5407 5405 5403 5402 5401 5400 5400 5400 5399 5399 5399 5400 5400 5400 5399 5399 5399 5400 5401 5402 5403 5405
5441 5439 5436 5433 5430 5428 5425 5422 5419 5417 5414 5411 5409 5406 5404 5402 5400 5398 5397 5396 5395 5396 5396 5396 5396 5396 5396 5396 5397 5397 5396 5395 5396 5397 5398 5399 5401 5402
5432 5429 5426 5423 5421 5418 5415 5413 5411 5408 5406 5404 5402 5399 5398 5396 5394 5393 5393 5392 5392 5392 5393 5393 5393 5393 5393 5394 5394 5394 5394 5393 5393 5394 5395 5397 5399 5400
5422 5419 5417 5414 5412 5409 5407 5405 5403 5401 5399 5397 5396 5394 5393 5391 5390 5389 5389 5389 5389 5389 5390 5391 5391 5391 5391 5391 5391 5391 5391 5391 5392 5393 5393 5394 5397 5399